Big Bear Station Historical Data
Daily Summary for August 22, 2017 Units:  English    Metric   Both
Next Day »
Daily Weekly Monthly Yearly Custom
  High: Low: Average:
Temperature: 81.9 °F 45.5 °F 62.3 °F
Dew Point: 50.7 °F 34.9 °F 43.1 °F
Humidity: 78% 27% 53%
Wind Speed: 6.3mph 0.0mph 1.4mph
Wind Gust: -999.0mph - -
Wind- - WNW
Pressure: 30.34 in 30.27 in -
Precipitation: 0.00 in    
Historical Graphs
 
 
Tabular Data for August 22, 2017
Time Temperature Dew Point Pressure Wind Wind Speed Wind Gust Humidity Rainfall Rate (Hourly)
00:11 50.9 °F 37.9 °F 30.30 in Calm   -999.0 mph 61% 0 in
00:26 50.9 °F 38.3 °F 30.30 in Calm   -999.0 mph 62% 0 in
00:42 50.4 °F 39.1 °F 30.31 in Calm   -999.0 mph 65% 0 in
00:57 50.0 °F 37.1 °F 30.31 in Calm   -999.0 mph 61% 0 in
01:12 49.3 °F 36.8 °F 30.30 in Calm   -999.0 mph 62% 0 in
01:27 49.1 °F 37.0 °F 30.30 in Calm   -999.0 mph 63% 0 in
01:42 48.9 °F 37.7 °F 30.30 in Calm   -999.0 mph 65% 0 in
01:58 48.7 °F 38.2 °F 30.30 in Calm   -999.0 mph 67% 0 in
02:13 48.4 °F 37.9 °F 30.30 in Calm   -999.0 mph 67% 0 in
02:28 48.0 °F 37.2 °F 30.30 in Calm   -999.0 mph 66% 0 in
02:43 47.7 °F 36.1 °F 30.30 in Calm   -999.0 mph 64% 0 in
02:59 47.5 °F 35.9 °F 30.30 in Calm   -999.0 mph 64% 0 in
03:14 47.5 °F 35.1 °F 30.30 in Calm   -999.0 mph 62% 0 in
03:29 47.3 °F 34.9 °F 30.30 in Calm   -999.0 mph 62% 0 in
03:44 47.1 °F 35.5 °F 30.30 in Calm   -999.0 mph 64% 0 in
03:59 46.9 °F 36.9 °F 30.30 in Calm   -999.0 mph 68% 0 in
04:15 46.8 °F 35.7 °F 30.30 in Calm   -999.0 mph 65% 0 in
04:30 46.6 °F 36.2 °F 30.30 in Calm   -999.0 mph 67% 0 in
04:45 46.2 °F 37.0 °F 30.30 in Calm   -999.0 mph 70% 0 in
05:00 46.2 °F 36.6 °F 30.30 in Calm   -999.0 mph 69% 0 in
05:15 46.0 °F 37.1 °F 30.30 in Calm   -999.0 mph 71% 0 in
05:31 45.9 °F 37.4 °F 30.30 in Calm   -999.0 mph 72% 0 in
05:46 45.5 °F 37.3 °F 30.31 in Calm   -999.0 mph 73% 0 in
06:01 45.5 °F 36.6 °F 30.31 in Calm   -999.0 mph 71% 0 in
06:16 45.5 °F 37.7 °F 30.31 in Calm   -999.0 mph 74% 0 in
06:31 45.5 °F 38.4 °F 30.32 in Calm   -999.0 mph 76% 0 in
06:47 45.7 °F 38.9 °F 30.32 in Calm   -999.0 mph 77% 0 in
07:02 46.0 °F 38.5 °F 30.32 in Calm   -999.0 mph 75% 0 in
07:17 46.4 °F 39.2 °F 30.32 in Calm   -999.0 mph 76% 0 in
07:32 47.1 °F 40.6 °F 30.32 in Calm   -999.0 mph 78% 0 in
07:47 48.0 °F 40.8 °F 30.33 in Calm   -999.0 mph 76% 0 in
08:03 48.0 °F 41.1 °F 30.33 in Calm   -999.0 mph 77% 0 in
08:18 50.0 °F 43.1 °F 30.33 in Calm   -999.0 mph 77% 0 in
08:33 51.8 °F 44.1 °F 30.34 in Calm   -999.0 mph 75% 0 in
08:48 54.7 °F 43.2 °F 30.33 in Calm   -999.0 mph 65% 0 in
09:04 57.9 °F 44.1 °F 30.34 in Calm   -999.0 mph 60% 0 in
09:19 61.2 °F 43.9 °F 30.34 in WNW 2.2 mph -999.0 mph 53% 0 in
09:34 63.3 °F 43.3 °F 30.34 in Calm   -999.0 mph 48% 0 in
09:49 65.3 °F 39.0 °F 30.34 in North 3.7 mph -999.0 mph 38% 0 in
10:04 67.6 °F 38.2 °F 30.34 in ESE 1.1 mph -999.0 mph 34% 0 in
10:20 68.7 °F 39.2 °F 30.34 in South 4.2 mph -999.0 mph 34% 0 in
10:35 70.0 °F 43.2 °F 30.34 in NW 4.7 mph -999.0 mph 38% 0 in
10:50 72.1 °F 42.2 °F 30.34 in NNW 3.2 mph -999.0 mph 34% 0 in
11:06 73.4 °F 41.8 °F 30.34 in Calm   -999.0 mph 32% 0 in
11:21 73.9 °F 46.0 °F 30.34 in NW 5.8 mph -999.0 mph 37% 0 in
11:37 74.8 °F 45.3 °F 30.34 in WNW 4.7 mph -999.0 mph 35% 0 in
11:52 75.9 °F 45.5 °F 30.33 in WNW 6.3 mph -999.0 mph 34% 0 in
12:07 76.3 °F 44.3 °F 30.33 in NNW 4.7 mph -999.0 mph 32% 0 in
12:22 77.0 °F 44.1 °F 30.33 in NW 4.7 mph -999.0 mph 31% 0 in
12:37 77.4 °F 45.2 °F 30.33 in NNW 4.2 mph -999.0 mph 32% 0 in
12:53 78.1 °F 45.0 °F 30.33 in NNW 4.7 mph -999.0 mph 31% 0 in
13:08 77.9 °F 45.7 °F 30.32 in North 5.3 mph -999.0 mph 32% 0 in
13:23 79.2 °F 46.8 °F 30.32 in NNW 2.7 mph -999.0 mph 32% 0 in
13:39 79.9 °F 43.9 °F 30.32 in SSE 3.2 mph -999.0 mph 28% 0 in
13:54 79.7 °F 45.5 °F 30.32 in WSW 2.7 mph -999.0 mph 30% 0 in
14:09 81.5 °F 45.3 °F 30.31 in South 2.7 mph -999.0 mph 28% 0 in
14:24 80.6 °F 44.5 °F 30.31 in North 3.7 mph -999.0 mph 28% 0 in
14:39 80.2 °F 43.2 °F 30.30 in WNW 4.2 mph -999.0 mph 27% 0 in
14:55 80.8 °F 44.7 °F 30.30 in NW 3.7 mph -999.0 mph 28% 0 in
15:10 80.8 °F 44.7 °F 30.30 in NW 3.2 mph -999.0 mph 28% 0 in
15:25 80.8 °F 49.0 °F 30.30 in NW 4.7 mph -999.0 mph 33% 0 in
15:41 79.2 °F 50.7 °F 30.30 in NNW 5.3 mph -999.0 mph 37% 0 in
15:56 77.2 °F 44.2 °F 30.30 in South 3.2 mph -999.0 mph 31% 0 in
16:11 79.0 °F 47.4 °F 30.29 in NNW 2.7 mph -999.0 mph 33% 0 in
16:26 78.4 °F 48.5 °F 30.29 in NW 3.7 mph -999.0 mph 35% 0 in
16:42 78.8 °F 49.6 °F 30.29 in West 3.7 mph -999.0 mph 36% 0 in
16:57 80.4 °F 50.3 °F 30.28 in NNW 3.7 mph -999.0 mph 35% 0 in
17:12 81.9 °F 50.0 °F 30.28 in WSW 1.1 mph -999.0 mph 33% 0 in
17:28 80.8 °F 49.0 °F 30.28 in NW 2.7 mph -999.0 mph 33% 0 in
17:43 79.5 °F 49.5 °F 30.28 in NNW 4.2 mph -999.0 mph 35% 0 in
17:58 80.2 °F 48.5 °F 30.28 in North 3.7 mph -999.0 mph 33% 0 in
18:14 78.4 °F 48.5 °F 30.27 in Calm   -999.0 mph 35% 0 in
18:29 75.7 °F 49.0 °F 30.27 in Calm   -999.0 mph 39% 0 in
18:44 71.6 °F 47.9 °F 30.27 in NW 3.7 mph -999.0 mph 43% 0 in
18:59 69.6 °F 47.9 °F 30.27 in WNW 2.7 mph -999.0 mph 46% 0 in
19:14 67.8 °F 47.4 °F 30.28 in WNW 2.2 mph -999.0 mph 48% 0 in
19:30 66.6 °F 47.4 °F 30.28 in Calm   -999.0 mph 50% 0 in
19:45 65.7 °F 47.6 °F 30.29 in Calm   -999.0 mph 52% 0 in
20:00 64.8 °F 47.8 °F 30.29 in Calm   -999.0 mph 54% 0 in
20:15 63.9 °F 47.4 °F 30.30 in Calm   -999.0 mph 55% 0 in
20:30 63.0 °F 47.5 °F 30.30 in Calm   -999.0 mph 57% 0 in
20:46 62.4 °F 47.0 °F 30.30 in Calm   -999.0 mph 57% 0 in
21:01 62.1 °F 47.1 °F 30.30 in Calm   -999.0 mph 58% 0 in
21:16 61.2 °F 46.8 °F 30.30 in Calm   -999.0 mph 59% 0 in
21:31 60.4 °F 46.9 °F 30.30 in Calm   -999.0 mph 61% 0 in
21:46 60.3 °F 47.2 °F 30.30 in Calm   -999.0 mph 62% 0 in
22:02 59.4 °F 46.8 °F 30.30 in Calm   -999.0 mph 63% 0 in
22:17 58.5 °F 46.8 °F 30.30 in Calm   -999.0 mph 65% 0 in
22:32 57.9 °F 46.6 °F 30.30 in Calm   -999.0 mph 66% 0 in
22:47 57.2 °F 46.3 °F 30.30 in Calm   -999.0 mph 67% 0 in
23:03 56.5 °F 46.5 °F 30.30 in Calm   -999.0 mph 69% 0 in
23:18 55.9 °F 46.3 °F 30.30 in Calm   -999.0 mph 70% 0 in
23:33 55.4 °F 46.2 °F 30.29 in Calm   -999.0 mph 71% 0 in
23:48 54.9 °F 46.0 °F 30.30 in Calm   -999.0 mph 72% 0 in
Big Bear CA Weather